Time,TemperatureF,DewpointF,PressureIn,WindDirection,WindDirectionDegrees,WindSpeedMPH,WindSpeedGustMPH,Humidity,HourlyPrecipIn,Conditions,Clouds,dailyrainin,SolarRadiationWatts/m^2,SoftwareType,DateUTC
2013-05-27 00:02:00,60.0,38.0,-100.00,SE,131,3.0,6.0,44,0.00,,,0.00,0.000000,,2013-05-27 05:02:00,
2013-05-27 00:12:00,60.0,38.0,-100.00,SE,131,3.0,6.0,44,0.00,,,0.00,0.000000,,2013-05-27 05:12:00,
2013-05-27 00:32:00,59.0,39.0,-100.00,East,95,3.0,6.0,47,0.00,,,0.00,0.000000,,2013-05-27 05:32:00,
2013-05-27 00:42:00,59.0,39.0,-100.00,East,95,3.0,6.0,47,0.00,,,0.00,0.000000,,2013-05-27 05:42:00,
2013-05-27 00:52:00,59.0,39.0,-100.00,East,95,3.0,6.0,47,0.00,,,0.00,0.000000,,2013-05-27 05:52:00,
2013-05-27 01:02:00,59.0,39.0,-100.00,East,95,3.0,6.0,47,0.00,,,0.00,0.000000,,2013-05-27 06:02:00,
2013-05-27 01:11:00,59.0,39.0,-100.00,East,95,3.0,6.0,47,0.00,,,0.00,0.000000,,2013-05-27 06:11:00,
2013-05-27 01:32:00,57.0,40.0,-100.00,East,89,1.0,7.0,52,0.00,,,0.00,0.000000,,2013-05-27 06:32:00,
2013-05-27 01:42:00,57.0,40.0,-100.00,East,89,1.0,7.0,52,0.00,,,0.00,0.000000,,2013-05-27 06:42:00,
2013-05-27 01:52:00,57.0,40.0,-100.00,East,89,1.0,7.0,52,0.00,,,0.00,0.000000,,2013-05-27 06:52:00,
2013-05-27 02:02:00,57.0,40.0,-100.00,East,89,1.0,7.0,52,0.00,,,0.00,0.000000,,2013-05-27 07:02:00,
2013-05-27 02:11:00,57.0,40.0,-100.00,East,89,1.0,7.0,52,0.00,,,0.00,0.000000,,2013-05-27 07:11:00,
2013-05-27 02:32:00,53.0,39.0,-100.00,ENE,64,3.0,6.0,59,0.00,,,0.00,0.000000,,2013-05-27 07:32:00,
2013-05-27 02:42:00,53.0,39.0,-100.00,ENE,64,3.0,6.0,59,0.00,,,0.00,0.000000,,2013-05-27 07:42:00,
2013-05-27 02:52:00,53.0,39.0,-100.00,ENE,64,3.0,6.0,59,0.00,,,0.00,0.000000,,2013-05-27 07:52:00,
2013-05-27 03:02:00,53.0,39.0,-100.00,ENE,64,3.0,6.0,59,0.00,,,0.00,0.000000,,2013-05-27 08:02:00,
2013-05-27 03:11:00,53.0,39.0,-100.00,ENE,64,3.0,6.0,59,0.00,,,0.00,0.000000,,2013-05-27 08:11:00,
2013-05-27 03:33:00,51.0,39.0,-100.00,ENE,76,2.0,5.0,64,0.00,,,0.00,0.000000,,2013-05-27 08:33:00,
2013-05-27 03:42:00,51.0,39.0,-100.00,ENE,76,2.0,5.0,64,0.00,,,0.00,0.000000,,2013-05-27 08:42:00,
2013-05-27 03:52:00,51.0,39.0,-100.00,ENE,76,2.0,5.0,64,0.00,,,0.00,0.000000,,2013-05-27 08:52:00,
2013-05-27 04:02:00,51.0,39.0,-100.00,ENE,76,2.0,5.0,64,0.00,,,0.00,0.000000,,2013-05-27 09:02:00,
2013-05-27 04:11:00,51.0,39.0,-100.00,ENE,76,2.0,5.0,64,0.00,,,0.00,0.000000,,2013-05-27 09:11:00,
2013-05-27 04:33:00,51.0,40.0,-100.00,ENE,62,1.0,5.0,67,0.00,,,0.00,0.000000,,2013-05-27 09:33:00,
2013-05-27 04:42:00,51.0,40.0,-100.00,ENE,62,1.0,5.0,67,0.00,,,0.00,0.000000,,2013-05-27 09:42:00,
2013-05-27 04:53:00,51.0,40.0,-100.00,ENE,62,1.0,5.0,67,0.00,,,0.00,0.000000,,2013-05-27 09:53:00,
2013-05-27 05:02:00,51.0,40.0,-100.00,ENE,62,1.0,5.0,67,0.00,,,0.00,0.000000,,2013-05-27 10:02:00,
2013-05-27 05:12:00,51.0,40.0,-100.00,ENE,62,1.0,5.0,67,0.00,,,0.00,0.000000,,2013-05-27 10:12:00,
2013-05-27 05:32:00,52.0,40.0,-100.00,ENE,62,2.0,7.0,64,0.00,,,0.00,0.000000,,2013-05-27 10:32:00,
2013-05-27 05:42:00,52.0,40.0,-100.00,ENE,62,2.0,7.0,64,0.00,,,0.00,0.000000,,2013-05-27 10:42:00,
2013-05-27 05:52:00,52.0,40.0,-100.00,ENE,62,2.0,7.0,64,0.00,,,0.00,0.000000,,2013-05-27 10:52:00,
2013-05-27 06:02:00,52.0,40.0,-100.00,ENE,62,2.0,7.0,64,0.00,,,0.00,0.000000,,2013-05-27 11:02:00,
2013-05-27 06:11:00,52.0,40.0,-100.00,ENE,62,2.0,7.0,64,0.00,,,0.00,0.000000,,2013-05-27 11:11:00,
2013-05-27 06:32:00,52.0,40.0,-100.00,NE,55,3.0,7.0,64,0.00,,,0.00,5.000000,,2013-05-27 11:32:00,
2013-05-27 06:42:00,52.0,40.0,-100.00,NE,55,3.0,7.0,64,0.00,,,0.00,5.000000,,2013-05-27 11:42:00,
2013-05-27 06:52:00,52.0,40.0,-100.00,NE,55,3.0,7.0,64,0.00,,,0.00,5.000000,,2013-05-27 11:52:00,
2013-05-27 07:01:00,52.0,40.0,-100.00,NE,55,3.0,7.0,64,0.00,,,0.00,5.000000,,2013-05-27 12:01:00,
2013-05-27 07:11:00,52.0,40.0,-100.00,NE,55,3.0,7.0,64,0.00,,,0.00,5.000000,,2013-05-27 12:11:00,
2013-05-27 07:32:00,53.0,41.0,-100.00,ENE,63,4.0,8.0,63,0.00,,,0.00,35.000000,,2013-05-27 12:32:00,
2013-05-27 07:42:00,53.0,41.0,-100.00,ENE,63,4.0,8.0,63,0.00,,,0.00,35.000000,,2013-05-27 12:42:00,
2013-05-27 07:52:00,53.0,41.0,-100.00,ENE,63,4.0,8.0,63,0.00,,,0.00,35.000000,,2013-05-27 12:52:00,
2013-05-27 08:01:00,53.0,41.0,-100.00,ENE,63,4.0,8.0,63,0.00,,,0.00,35.000000,,2013-05-27 13:01:00,
2013-05-27 08:11:00,53.0,41.0,-100.00,ENE,63,4.0,8.0,63,0.00,,,0.00,35.000000,,2013-05-27 13:11:00,
2013-05-27 08:42:00,56.0,42.0,-100.00,East,87,4.0,11.0,60,0.00,,,0.00,74.000000,,2013-05-27 13:42:00,
2013-05-27 08:53:00,56.0,42.0,-100.00,East,87,4.0,11.0,60,0.00,,,0.00,74.000000,,2013-05-27 13:53:00,
2013-05-27 09:02:00,56.0,42.0,-100.00,East,87,4.0,11.0,60,0.00,,,0.00,74.000000,,2013-05-27 14:02:00,
2013-05-27 09:11:00,56.0,42.0,-100.00,East,87,4.0,11.0,60,0.00,,,0.00,74.000000,,2013-05-27 14:11:00,
2013-05-27 09:42:00,58.0,40.0,-100.00,East,97,5.0,13.0,52,0.00,,,0.00,101.000000,,2013-05-27 14:42:00,
2013-05-27 09:52:00,58.0,40.0,-100.00,East,97,5.0,13.0,52,0.00,,,0.00,101.000000,,2013-05-27 14:52:00,
2013-05-27 10:01:00,58.0,40.0,-100.00,East,97,5.0,13.0,52,0.00,,,0.00,101.000000,,2013-05-27 15:01:00,
2013-05-27 10:11:00,58.0,40.0,-100.00,East,97,5.0,13.0,52,0.00,,,0.00,101.000000,,2013-05-27 15:11:00,
2013-05-27 10:33:00,59.0,41.0,-100.00,East,100,3.0,13.0,52,0.00,,,0.00,143.000000,,2013-05-27 15:33:00,
2013-05-27 10:43:00,59.0,41.0,-100.00,East,100,3.0,13.0,52,0.00,,,0.00,143.000000,,2013-05-27 15:43:00,
2013-05-27 10:53:00,59.0,41.0,-100.00,East,100,3.0,13.0,52,0.00,,,0.00,143.000000,,2013-05-27 15:53:00,
2013-05-27 11:03:00,59.0,41.0,-100.00,East,100,3.0,13.0,52,0.00,,,0.00,143.000000,,2013-05-27 16:03:00,
2013-05-27 11:12:00,59.0,41.0,-100.00,East,100,3.0,13.0,52,0.00,,,0.00,143.000000,,2013-05-27 16:12:00,
2013-05-27 11:33:00,62.0,43.0,-100.00,ESE,114,5.0,14.0,49,0.00,,,0.00,201.000000,,2013-05-27 16:33:00,
2013-05-27 11:42:00,62.0,43.0,-100.00,ESE,114,5.0,14.0,49,0.00,,,0.00,201.000000,,2013-05-27 16:42:00,
2013-05-27 11:53:00,62.0,43.0,-100.00,ESE,114,5.0,14.0,49,0.00,,,0.00,201.000000,,2013-05-27 16:53:00,
2013-05-27 12:02:00,62.0,43.0,-100.00,ESE,114,5.0,14.0,49,0.00,,,0.00,201.000000,,2013-05-27 17:02:00,
2013-05-27 12:11:00,62.0,43.0,-100.00,ESE,114,5.0,14.0,49,0.00,,,0.00,201.000000,,2013-05-27 17:11:00,
2013-05-27 12:32:00,62.0,44.0,-100.00,ESE,112,8.0,15.0,52,0.00,,,0.00,235.000000,,2013-05-27 17:32:00,
2013-05-27 12:43:00,62.0,44.0,-100.00,ESE,112,8.0,15.0,52,0.00,,,0.00,235.000000,,2013-05-27 17:43:00,
2013-05-27 12:52:00,62.0,44.0,-100.00,ESE,112,8.0,15.0,52,0.00,,,0.00,235.000000,,2013-05-27 17:52:00,
2013-05-27 13:02:00,62.0,44.0,-100.00,ESE,112,8.0,15.0,52,0.00,,,0.00,235.000000,,2013-05-27 18:02:00,
2013-05-27 13:11:00,62.0,44.0,-100.00,ESE,112,8.0,15.0,52,0.00,,,0.00,235.000000,,2013-05-27 18:11:00,
2013-05-27 13:32:00,63.0,47.0,-100.00,East,100,6.0,15.0,56,0.00,,,0.00,199.000000,,2013-05-27 18:32:00,
2013-05-27 13:42:00,63.0,47.0,-100.00,East,100,6.0,15.0,56,0.00,,,0.00,199.000000,,2013-05-27 18:42:00,
2013-05-27 13:52:00,63.0,47.0,-100.00,East,100,6.0,15.0,56,0.00,,,0.00,199.000000,,2013-05-27 18:52:00,
2013-05-27 14:01:00,63.0,47.0,-100.00,East,100,6.0,15.0,56,0.00,,,0.00,199.000000,,2013-05-27 19:01:00,
2013-05-27 14:11:00,63.0,47.0,-100.00,East,100,6.0,15.0,56,0.00,,,0.00,199.000000,,2013-05-27 19:11:00,
2013-05-27 14:32:00,63.0,49.0,-100.00,ESE,106,5.0,14.0,61,0.00,,,0.00,122.000000,,2013-05-27 19:32:00,
2013-05-27 14:42:00,63.0,49.0,-100.00,ESE,106,5.0,14.0,61,0.00,,,0.00,122.000000,,2013-05-27 19:42:00,
2013-05-27 14:52:00,63.0,49.0,-100.00,ESE,106,5.0,14.0,61,0.00,,,0.00,122.000000,,2013-05-27 19:52:00,
2013-05-27 15:01:00,63.0,49.0,-100.00,ESE,106,5.0,14.0,61,0.00,,,0.00,122.000000,,2013-05-27 20:01:00,
2013-05-27 15:11:00,63.0,49.0,-100.00,ESE,106,5.0,14.0,61,0.00,,,0.00,122.000000,,2013-05-27 20:11:00,
2013-05-27 15:32:00,64.0,48.0,-100.00,ESE,115,5.0,12.0,56,0.00,,,0.00,120.000000,,2013-05-27 20:32:00,
2013-05-27 15:42:00,64.0,48.0,-100.00,ESE,115,5.0,12.0,56,0.00,,,0.00,120.000000,,2013-05-27 20:42:00,
2013-05-27 15:52:00,64.0,48.0,-100.00,ESE,115,5.0,12.0,56,0.00,,,0.00,120.000000,,2013-05-27 20:52:00,
2013-05-27 16:01:00,64.0,48.0,-100.00,ESE,115,5.0,12.0,56,0.00,,,0.00,120.000000,,2013-05-27 21:01:00,
2013-05-27 16:12:00,64.0,48.0,-100.00,ESE,115,5.0,12.0,56,0.00,,,0.00,120.000000,,2013-05-27 21:12:00,
2013-05-27 16:33:00,64.0,47.0,-100.00,ESE,109,6.0,15.0,55,0.00,,,0.00,111.000000,,2013-05-27 21:33:00,
2013-05-27 16:43:00,64.0,47.0,-100.00,ESE,109,6.0,15.0,55,0.00,,,0.00,111.000000,,2013-05-27 21:43:00,
2013-05-27 16:53:00,64.0,47.0,-100.00,ESE,109,6.0,15.0,55,0.00,,,0.00,111.000000,,2013-05-27 21:53:00,
2013-05-27 17:02:00,64.0,47.0,-100.00,ESE,109,6.0,15.0,55,0.00,,,0.00,111.000000,,2013-05-27 22:02:00,
2013-05-27 17:12:00,64.0,47.0,-100.00,ESE,109,6.0,15.0,55,0.00,,,0.00,111.000000,,2013-05-27 22:12:00,
2013-05-27 17:33:00,64.0,47.0,-100.00,East,100,3.0,14.0,55,0.00,,,0.00,119.000000,,2013-05-27 22:33:00,
2013-05-27 17:42:00,64.0,47.0,-100.00,East,100,3.0,14.0,55,0.00,,,0.00,119.000000,,2013-05-27 22:42:00,
2013-05-27 17:53:00,64.0,47.0,-100.00,East,100,3.0,14.0,55,0.00,,,0.00,119.000000,,2013-05-27 22:53:00,
2013-05-27 18:02:00,64.0,47.0,-100.00,East,100,3.0,14.0,55,0.00,,,0.00,119.000000,,2013-05-27 23:02:00,
2013-05-27 18:12:00,64.0,47.0,-100.00,East,100,3.0,14.0,55,0.00,,,0.00,119.000000,,2013-05-27 23:12:00,
2013-05-27 18:42:00,64.0,48.0,-100.00,East,95,3.0,9.0,56,0.00,,,0.00,38.000000,,2013-05-27 23:42:00,
2013-05-27 18:52:00,64.0,48.0,-100.00,East,95,3.0,9.0,56,0.00,,,0.00,38.000000,,2013-05-27 23:52:00,
2013-05-27 19:01:00,64.0,48.0,-100.00,East,95,3.0,9.0,56,0.00,,,0.00,38.000000,,2013-05-28 00:01:00,
2013-05-27 19:11:00,64.0,48.0,-100.00,East,95,3.0,9.0,56,0.00,,,0.00,38.000000,,2013-05-28 00:11:00,
2013-05-27 20:32:00,61.0,47.0,-100.00,SE,124,8.0,15.0,61,-99.99,,,0.00,32.000000,,2013-05-28 01:32:00,
2013-05-27 20:42:00,61.0,47.0,-100.00,SE,124,8.0,15.0,61,-99.99,,,0.00,32.000000,,2013-05-28 01:42:00,
2013-05-27 20:52:00,61.0,47.0,-100.00,SE,124,8.0,15.0,61,-99.99,,,0.00,32.000000,,2013-05-28 01:52:00,
2013-05-27 21:02:00,61.0,47.0,-100.00,SE,124,8.0,15.0,61,-99.99,,,0.00,32.000000,,2013-05-28 02:02:00,
2013-05-27 21:11:00,61.0,47.0,-100.00,SE,124,8.0,15.0,61,-99.99,,,0.00,32.000000,,2013-05-28 02:11:00,
2013-05-27 21:32:00,60.0,48.0,-100.00,SE,137,3.0,19.0,65,0.00,,,0.00,6.000000,,2013-05-28 02:32:00,
2013-05-27 21:42:00,60.0,48.0,-100.00,SE,137,3.0,19.0,65,0.00,,,0.00,6.000000,,2013-05-28 02:42:00,
2013-05-27 21:52:00,60.0,48.0,-100.00,SE,137,3.0,19.0,65,0.00,,,0.00,6.000000,,2013-05-28 02:52:00,
2013-05-27 22:01:00,60.0,48.0,-100.00,SE,137,3.0,19.0,65,0.00,,,0.00,6.000000,,2013-05-28 03:01:00,
2013-05-27 22:11:00,60.0,48.0,-100.00,SE,137,3.0,19.0,65,0.00,,,0.00,6.000000,,2013-05-28 03:11:00,
2013-05-27 22:33:00,59.0,48.0,-100.00,ESE,123,3.0,7.0,67,0.00,,,0.00,0.000000,,2013-05-28 03:33:00,
2013-05-27 22:43:00,59.0,48.0,-100.00,ESE,123,3.0,7.0,67,0.00,,,0.00,0.000000,,2013-05-28 03:43:00,
2013-05-27 22:53:00,59.0,48.0,-100.00,ESE,123,3.0,7.0,67,0.00,,,0.00,0.000000,,2013-05-28 03:53:00,
2013-05-27 23:03:00,59.0,48.0,-100.00,ESE,123,3.0,7.0,67,0.00,,,0.00,0.000000,,2013-05-28 04:03:00,
2013-05-27 23:13:00,59.0,48.0,-100.00,ESE,123,3.0,7.0,67,0.00,,,0.00,0.000000,,2013-05-28 04:13:00,
2013-05-27 23:33:00,58.0,48.0,-100.00,ESE,113,3.0,8.0,70,0.00,,,0.00,0.000000,,2013-05-28 04:33:00,
2013-05-27 23:43:00,58.0,48.0,-100.00,ESE,113,3.0,8.0,70,0.00,,,0.00,0.000000,,2013-05-28 04:43:00,
2013-05-27 23:53:00,58.0,48.0,-100.00,ESE,113,3.0,8.0,70,0.00,,,0.00,0.000000,,2013-05-28 04:53:00,